Location: Mainz-Finthen
(49.9906°N, 8.1713°E)
Time: 08:07:36
(UTC+00:00)

Envisat - Pass Details

Date: 30 September 2021
Orbit: 764 x 766 km, 98.2° (Epoch: 22 October)

Event Time Altitude Azimuth Distance (km) Brightness Sun altitude
Rises 04:09:26 0° 19° (NNE) 3,244 6.7 -13.1°
Reaches altitude 10° 04:11:52 10° 26° (NNE) 2,312 6.0 -12.7°
Maximum altitude 04:16:42 42° 97° (E) 1,088 4.4 -11.9°
Drops below altitude 10° 04:21:29 10° 168° (SSE) 2,295 5.5 -11.1°
Sets 04:23:54 0° 176° (S) 3,216 6.2 -10.8°
